N8244L LPPR-LPPT

Flight info

Callsign N8244L
Flight time 1h 28m
Altitude 19000
Route MANIK A5 FTM
Aircraft STAR/L-SDFGRWY/S

Departure

Time 2026-05-07 16:54
Airport Francisco de Sá Carneiro Airport (LPPR)

Arrival

Time 2026-05-07 18:22
Airport Lisbon Humberto Delgado Airport (LPPT)
Time Latitude Longitude Altitude Speed Heading
2026-05-07 16:12 41.23989 -8.67623 248 ft 0 kts 258°
2026-05-07 16:46 41.23990 -8.67615 248 ft 1 kts 258°
2026-05-07 16:46 41.23991 -8.67608 248 ft 1 kts 258°
2026-05-07 16:46 41.23992 -8.67600 248 ft 2 kts 258°
2026-05-07 16:47 41.23997 -8.67573 248 ft 3 kts 258°
2026-05-07 16:47 41.24001 -8.67544 248 ft 3 kts 258°
2026-05-07 16:47 41.24004 -8.67523 248 ft 0 kts 258°
2026-05-07 16:47 41.23993 -8.67529 249 ft 7 kts 161°
2026-05-07 16:48 41.23987 -8.67525 249 ft 0 kts 152°
2026-05-07 16:48 41.23977 -8.67519 249 ft 9 kts 158°
2026-05-07 16:48 41.23908 -8.67498 252 ft 18 kts 169°
2026-05-07 16:48 41.23800 -8.67468 253 ft 14 kts 169°
2026-05-07 16:49 41.23717 -8.67447 254 ft 12 kts 169°
2026-05-07 16:49 41.23678 -8.67438 255 ft 6 kts 182°
2026-05-07 16:49 41.23646 -8.67454 256 ft 4 kts 217°
2026-05-07 16:49 41.23630 -8.67495 257 ft 7 kts 259°
2026-05-07 16:50 41.23621 -8.67554 259 ft 9 kts 258°
2026-05-07 16:50 41.23613 -8.67605 259 ft 0 kts 259°
2026-05-07 16:51 41.23602 -8.67685 260 ft 14 kts 258°
2026-05-07 16:51 41.23600 -8.67788 261 ft 11 kts 302°
2026-05-07 16:52 41.23639 -8.67819 259 ft 0 kts 347°
2026-05-07 16:53 41.23763 -8.67853 253 ft 42 kts 348°
2026-05-07 16:53 41.24218 -8.67973 244 ft 92 kts 348°
2026-05-07 16:54 41.24970 -8.68167 452 ft 125 kts 342°
2026-05-07 16:54 41.25903 -8.68470 861 ft 153 kts 345°
2026-05-07 16:54 41.26966 -8.68723 1542 ft 157 kts 347°
2026-05-07 16:54 41.28063 -8.68978 2164 ft 161 kts 345°
2026-05-07 16:55 41.29159 -8.69280 2884 ft 160 kts 345°
2026-05-07 16:55 41.30263 -8.69569 3527 ft 167 kts 345°
2026-05-07 16:55 41.31475 -8.69886 3965 ft 184 kts 346°
2026-05-07 16:55 41.32756 -8.70217 4598 ft 190 kts 346°
2026-05-07 16:56 41.34061 -8.70559 5290 ft 192 kts 346°
2026-05-07 16:56 41.35378 -8.70904 6000 ft 194 kts 346°
2026-05-07 16:56 41.37161 -8.73155 7369 ft 182 kts 272°
2026-05-07 16:57 41.36898 -8.74685 8110 ft 170 kts 231°
2026-05-07 16:57 41.35939 -8.75515 8862 ft 165 kts 188°
2026-05-07 16:57 41.34830 -8.75196 9444 ft 178 kts 153°
2026-05-07 16:57 41.33760 -8.74315 10066 ft 182 kts 148°
2026-05-07 16:58 41.32710 -8.73355 10722 ft 184 kts 147°
2026-05-07 16:58 41.31664 -8.72364 11386 ft 185 kts 146°
2026-05-07 16:58 41.30557 -8.71491 12054 ft 185 kts 156°
2026-05-07 16:58 41.29355 -8.70858 12720 ft 187 kts 162°
2026-05-07 16:59 41.28104 -8.70366 13416 ft 189 kts 166°
2026-05-07 16:59 41.26830 -8.69966 14110 ft 187 kts 168°
2026-05-07 16:59 41.25545 -8.69606 14688 ft 191 kts 169°
2026-05-07 16:59 41.24209 -8.69264 15148 ft 201 kts 173°
2026-05-07 17:00 41.22819 -8.69095 15672 ft 204 kts 177°
2026-05-07 17:00 41.21384 -8.68920 16210 ft 209 kts 174°
2026-05-07 17:00 41.19931 -8.68686 16852 ft 210 kts 175°
2026-05-07 17:00 41.18475 -8.68482 17603 ft 210 kts 176°
2026-05-07 17:01 41.17006 -8.68291 18248 ft 217 kts 176°
2026-05-07 17:01 41.15453 -8.68067 18572 ft 234 kts 176°
2026-05-07 17:01 41.13759 -8.67823 18742 ft 255 kts 176°
2026-05-07 17:01 41.11934 -8.67579 18825 ft 273 kts 176°
2026-05-07 17:02 41.09999 -8.67296 18866 ft 286 kts 176°
2026-05-07 17:02 41.07984 -8.67018 18885 ft 296 kts 176°
2026-05-07 17:02 41.05941 -8.66738 18894 ft 302 kts 175°
2026-05-07 17:02 41.03831 -8.66428 18904 ft 307 kts 176°
2026-05-07 17:03 41.01692 -8.66144 18903 ft 311 kts 175°
2026-05-07 17:03 40.99534 -8.65833 18908 ft 313 kts 176°
2026-05-07 17:03 40.97362 -8.65530 18910 ft 314 kts 178°
2026-05-07 17:03 40.95214 -8.65803 18911 ft 310 kts 200°
2026-05-07 17:04 40.93351 -8.67171 18911 ft 307 kts 222°
2026-05-07 17:04 40.92080 -8.69409 18911 ft 306 kts 246°
2026-05-07 17:04 40.91571 -8.72123 18918 ft 307 kts 263°
2026-05-07 17:04 40.91417 -8.74914 18915 ft 308 kts 266°
2026-05-07 17:05 40.91346 -8.77745 18911 ft 309 kts 268°
2026-05-07 17:05 40.91309 -8.80586 18910 ft 309 kts 268°
2026-05-07 17:05 40.91289 -8.83426 18908 ft 309 kts 269°
2026-05-07 17:05 40.91269 -8.86270 18907 ft 310 kts 268°
2026-05-07 17:06 40.91252 -8.89116 18907 ft 310 kts 269°
2026-05-07 17:06 40.91253 -8.91968 18900 ft 310 kts 272°
2026-05-07 17:06 40.91776 -8.94729 18900 ft 312 kts 290°
2026-05-07 17:06 40.92482 -8.97433 18900 ft 312 kts 293°
2026-05-07 17:07 40.93749 -8.99713 18903 ft 316 kts 316°
2026-05-07 17:07 40.95636 -9.01198 18905 ft 320 kts 339°
2026-05-07 17:07 40.97833 -9.01603 18904 ft 323 kts
2026-05-07 17:07 41.00009 -9.00850 18899 ft 327 kts 25°
2026-05-07 17:08 41.01826 -8.99055 18905 ft 328 kts 48°
2026-05-07 17:08 41.03000 -8.96486 18905 ft 328 kts 71°
2026-05-07 17:08 41.03357 -8.93529 18904 ft 326 kts 93°
2026-05-07 17:08 41.02863 -8.90626 18902 ft 324 kts 113°
2026-05-07 17:09 41.01970 -8.87891 18900 ft 323 kts 116°
2026-05-07 17:09 41.01001 -8.85200 18905 ft 324 kts 118°
2026-05-07 17:09 40.99772 -8.82790 18906 ft 320 kts 137°
2026-05-07 17:09 40.97942 -8.81188 18904 ft 315 kts 160°
2026-05-07 17:10 40.95814 -8.80657 18908 ft 312 kts 180°
2026-05-07 17:10 40.93645 -8.80638 18906 ft 312 kts 182°
2026-05-07 17:10 40.91469 -8.80625 18910 ft 313 kts 180°
2026-05-07 17:10 40.89299 -8.80510 18910 ft 313 kts 178°
2026-05-07 17:11 40.87125 -8.80271 18910 ft 314 kts 175°
2026-05-07 17:11 40.84955 -8.79914 18900 ft 314 kts 173°
2026-05-07 17:11 40.82792 -8.79490 18909 ft 314 kts 173°
2026-05-07 17:11 40.80659 -8.79054 18909 ft 314 kts 173°
2026-05-07 17:12 40.78500 -8.78595 18905 ft 314 kts 172°
2026-05-07 17:12 40.76370 -8.77954 18897 ft 315 kts 166°
2026-05-07 17:12 40.74263 -8.77174 18897 ft 314 kts 167°
2026-05-07 17:12 40.72136 -8.76509 18898 ft 314 kts 168°
2026-05-07 17:13 40.70019 -8.75781 18900 ft 315 kts 167°
2026-05-07 17:13 40.67897 -8.75073 18900 ft 315 kts 168°
2026-05-07 17:13 40.65777 -8.74372 18900 ft 315 kts 167°
2026-05-07 17:13 40.63678 -8.73658 18901 ft 315 kts 168°
2026-05-07 17:14 40.61559 -8.72967 18898 ft 314 kts 167°
2026-05-07 17:14 40.59439 -8.72249 18899 ft 314 kts 167°
2026-05-07 17:14 40.57321 -8.71540 18889 ft 314 kts 169°
2026-05-07 17:14 40.55199 -8.70843 18894 ft 315 kts 168°
2026-05-07 17:15 40.53071 -8.70130 18900 ft 316 kts 167°
2026-05-07 17:15 40.50940 -8.69414 18901 ft 316 kts 168°
2026-05-07 17:15 40.48808 -8.68717 18902 ft 317 kts 168°
2026-05-07 17:15 40.46669 -8.68001 18903 ft 318 kts 167°
2026-05-07 17:16 40.44555 -8.67290 18905 ft 318 kts 168°
2026-05-07 17:16 40.42408 -8.66588 18904 ft 318 kts 167°
2026-05-07 17:16 40.40264 -8.65874 18903 ft 318 kts 168°
2026-05-07 17:16 40.38119 -8.65159 18903 ft 318 kts 168°
2026-05-07 17:17 40.35975 -8.64451 18898 ft 318 kts 168°
2026-05-07 17:17 40.33833 -8.63744 18899 ft 317 kts 168°
2026-05-07 17:17 40.31692 -8.63040 18900 ft 317 kts 167°
2026-05-07 17:17 40.29553 -8.62321 18900 ft 317 kts 169°
2026-05-07 17:18 40.27440 -8.61632 18900 ft 317 kts 168°
2026-05-07 17:18 40.25299 -8.60928 18900 ft 318 kts 167°
2026-05-07 17:18 40.23163 -8.60210 18901 ft 318 kts 168°
2026-05-07 17:18 40.21018 -8.59511 18900 ft 318 kts 169°
2026-05-07 17:19 40.18877 -8.58807 18902 ft 317 kts 168°
2026-05-07 17:19 40.16734 -8.58089 18902 ft 317 kts 168°
2026-05-07 17:19 40.14599 -8.57395 18894 ft 317 kts 169°
2026-05-07 17:19 40.12459 -8.56700 18897 ft 317 kts 168°
2026-05-07 17:20 40.10325 -8.55982 18903 ft 317 kts 168°
2026-05-07 17:20 40.08186 -8.55292 18903 ft 317 kts 167°
2026-05-07 17:20 40.06077 -8.54593 18904 ft 317 kts 168°
2026-05-07 17:20 40.03932 -8.53920 18904 ft 317 kts 170°
2026-05-07 17:21 40.01760 -8.53441 18902 ft 316 kts 176°
2026-05-07 17:21 39.99572 -8.53322 18903 ft 314 kts 181°
2026-05-07 17:21 39.97389 -8.53156 18905 ft 315 kts 177°
2026-05-07 17:21 39.95212 -8.52946 18905 ft 313 kts 180°
2026-05-07 17:22 39.93036 -8.52799 18898 ft 313 kts 178°
2026-05-07 17:22 39.90864 -8.52584 18900 ft 313 kts 179°
2026-05-07 17:22 39.88692 -8.52428 18902 ft 313 kts 179°
2026-05-07 17:22 39.86519 -8.52236 18903 ft 313 kts 178°
2026-05-07 17:23 39.84346 -8.52049 18903 ft 313 kts 179°
2026-05-07 17:23 39.82178 -8.51882 18903 ft 313 kts 179°
2026-05-07 17:23 39.80037 -8.51692 18904 ft 312 kts 179°
2026-05-07 17:23 39.77869 -8.51523 18903 ft 312 kts 179°
2026-05-07 17:24 39.75727 -8.51700 18901 ft 307 kts 197°
2026-05-07 17:24 39.73792 -8.52832 18901 ft 306 kts 212°
2026-05-07 17:24 39.72015 -8.54349 18901 ft 306 kts 216°
2026-05-07 17:24 39.70208 -8.55807 18897 ft 306 kts 211°
2026-05-07 17:25 39.68377 -8.57211 18898 ft 306 kts 213°
2026-05-07 17:25 39.66572 -8.58670 18900 ft 306 kts 212°
2026-05-07 17:25 39.64739 -8.60083 18900 ft 306 kts 212°
2026-05-07 17:25 39.62947 -8.61506 18900 ft 306 kts 213°
2026-05-07 17:26 39.61129 -8.62936 18900 ft 305 kts 212°
2026-05-07 17:26 39.59311 -8.64356 18905 ft 306 kts 212°
2026-05-07 17:26 39.57493 -8.65789 18904 ft 306 kts 212°
2026-05-07 17:26 39.55672 -8.67215 18905 ft 306 kts 212°
2026-05-07 17:27 39.53852 -8.68639 18906 ft 305 kts 212°
2026-05-07 17:27 39.52035 -8.70068 18902 ft 306 kts 212°
2026-05-07 17:27 39.50212 -8.71492 18901 ft 307 kts 212°
2026-05-07 17:27 39.48391 -8.72920 18902 ft 305 kts 212°
2026-05-07 17:28 39.46574 -8.74338 18901 ft 304 kts 212°
2026-05-07 17:28 39.44763 -8.75752 18900 ft 304 kts 212°
2026-05-07 17:28 39.42979 -8.77147 18900 ft 304 kts 212°
2026-05-07 17:28 39.41169 -8.78559 18900 ft 304 kts 212°
2026-05-07 17:29 39.39439 -8.80170 18907 ft 302 kts 221°
2026-05-07 17:29 39.38037 -8.82133 18907 ft 302 kts 230°
2026-05-07 17:29 39.36711 -8.84243 18908 ft 302 kts 228°
2026-05-07 17:29 39.35288 -8.86250 18908 ft 303 kts 227°
2026-05-07 17:30 39.33912 -8.88310 18908 ft 303 kts 229°
2026-05-07 17:30 39.32520 -8.90348 18908 ft 302 kts 227°
2026-05-07 17:30 39.31125 -8.92379 18908 ft 302 kts 229°
2026-05-07 17:30 39.29744 -8.94423 18914 ft 303 kts 228°
2026-05-07 17:31 39.28348 -8.96458 18916 ft 303 kts 228°
2026-05-07 17:31 39.26956 -8.98497 18915 ft 303 kts 228°
2026-05-07 17:31 39.25565 -9.00536 18914 ft 303 kts 228°
2026-05-07 17:31 39.24190 -9.02543 18914 ft 303 kts 228°
2026-05-07 17:32 39.22797 -9.04583 18910 ft 303 kts 228°
2026-05-07 17:32 39.21403 -9.06619 18908 ft 303 kts 227°
2026-05-07 17:32 39.20009 -9.08650 18910 ft 302 kts 228°
2026-05-07 17:32 39.19087 -9.09997 18917 ft 302 kts 227°
2026-05-07 17:33 39.17230 -9.12704 18920 ft 301 kts 227°
2026-05-07 17:33 39.15843 -9.14725 18918 ft 301 kts 227°
2026-05-07 17:33 39.14459 -9.16740 18917 ft 301 kts 227°
2026-05-07 17:33 39.13076 -9.18753 18917 ft 299 kts 227°
2026-05-07 17:34 39.11715 -9.20733 18787 ft 301 kts 227°
2026-05-07 17:34 39.10311 -9.22771 18321 ft 306 kts 227°
2026-05-07 17:34 39.08899 -9.24824 17804 ft 306 kts 227°
2026-05-07 17:34 39.07485 -9.26873 17283 ft 306 kts 227°
2026-05-07 17:35 39.06074 -9.28921 16759 ft 306 kts 227°
2026-05-07 17:35 39.04664 -9.30965 16250 ft 305 kts 226°
2026-05-07 17:35 39.03261 -9.32996 15746 ft 304 kts 226°
2026-05-07 17:35 39.01857 -9.35029 15250 ft 303 kts 226°
2026-05-07 17:36 39.00463 -9.37046 14764 ft 302 kts 226°
2026-05-07 17:36 38.99067 -9.39062 14274 ft 301 kts 226°
2026-05-07 17:36 38.97671 -9.41063 13800 ft 299 kts 224°
2026-05-07 17:36 38.96001 -9.42513 13280 ft 292 kts 201°
2026-05-07 17:37 38.94081 -9.43223 12755 ft 284 kts 193°
2026-05-07 17:37 38.92173 -9.43763 12238 ft 279 kts 192°
2026-05-07 17:37 38.90285 -9.44267 11730 ft 276 kts 192°
2026-05-07 17:37 38.88419 -9.44768 11230 ft 273 kts 192°
2026-05-07 17:38 38.86570 -9.45265 10742 ft 270 kts 192°
2026-05-07 17:38 38.84746 -9.45757 10257 ft 264 kts 192°
2026-05-07 17:38 38.82963 -9.46239 9774 ft 260 kts 192°
2026-05-07 17:38 38.81212 -9.46758 9250 ft 256 kts 197°
2026-05-07 17:39 38.79534 -9.47483 8730 ft 254 kts 199°
2026-05-07 17:39 38.77857 -9.48148 8301 ft 249 kts 196°
2026-05-07 17:39 38.76247 -9.48757 8107 ft 240 kts 198°
2026-05-07 17:39 38.74692 -9.49388 8011 ft 229 kts 198°
2026-05-07 17:40 38.73202 -9.49973 7962 ft 218 kts 197°
2026-05-07 17:40 38.71783 -9.50525 7944 ft 208 kts 198°
2026-05-07 17:40 38.70419 -9.51065 7935 ft 210 kts 198°
2026-05-07 17:40 38.68945 -9.51650 7936 ft 229 kts 198°
2026-05-07 17:41 38.67402 -9.52253 7933 ft 233 kts 198°
2026-05-07 17:41 38.65849 -9.52861 7927 ft 234 kts 198°
2026-05-07 17:41 38.64825 -9.53268 7932 ft 233 kts 198°
2026-05-07 17:41 38.62759 -9.54077 7932 ft 231 kts 198°
2026-05-07 17:42 38.61224 -9.54680 7936 ft 231 kts 198°
2026-05-07 17:42 38.59684 -9.55261 7935 ft 230 kts 193°
2026-05-07 17:42 38.58089 -9.55174 7935 ft 232 kts 170°
2026-05-07 17:42 38.56531 -9.54711 7936 ft 234 kts 167°
2026-05-07 17:43 38.54949 -9.54243 7936 ft 233 kts 171°
2026-05-07 17:43 38.53351 -9.53884 7936 ft 233 kts 171°
2026-05-07 17:43 38.51795 -9.53319 7936 ft 235 kts 155°
2026-05-07 17:43 38.50423 -9.52175 7936 ft 236 kts 147°
2026-05-07 17:44 38.49310 -9.50642 7965 ft 240 kts 120°
2026-05-07 17:44 38.48948 -9.48572 7996 ft 244 kts 90°
2026-05-07 17:44 38.49435 -9.46491 7823 ft 248 kts 60°
2026-05-07 17:44 38.50152 -9.45353 7480 ft 249 kts 46°
2026-05-07 17:45 38.51379 -9.43811 6988 ft 245 kts 49°
2026-05-07 17:45 38.52445 -9.42147 6498 ft 239 kts 56°
2026-05-07 17:45 38.53278 -9.40360 5994 ft 231 kts 73°
2026-05-07 17:45 38.53420 -9.38401 5470 ft 219 kts 94°
2026-05-07 17:46 38.53304 -9.36476 5012 ft 215 kts 96°
2026-05-07 17:46 38.53103 -9.34016 4506 ft 207 kts 92°
2026-05-07 17:46 38.53275 -9.32804 4246 ft 206 kts 68°
2026-05-07 17:46 38.53878 -9.31140 3980 ft 204 kts 61°
2026-05-07 17:47 38.54539 -9.29551 4000 ft 201 kts 59°
2026-05-07 17:47 38.55212 -9.27986 4011 ft 201 kts 58°
2026-05-07 17:47 38.56067 -9.26617 4017 ft 196 kts 34°
2026-05-07 17:47 38.57191 -9.25627 4016 ft 195 kts 28°
2026-05-07 17:48 38.58275 -9.24753 4018 ft 179 kts 27°
2026-05-07 17:48 38.59338 -9.23945 4019 ft 177 kts 25°
2026-05-07 17:48 38.60417 -9.23138 4017 ft 184 kts 28°
2026-05-07 17:48 38.61551 -9.22302 4019 ft 191 kts 25°
2026-05-07 17:49 38.62726 -9.21444 3845 ft 199 kts 25°
2026-05-07 17:49 38.63954 -9.20596 3341 ft 199 kts 24°
2026-05-07 17:49 38.65142 -9.19799 2821 ft 188 kts 22°
2026-05-07 17:49 38.66275 -9.19146 2489 ft 170 kts 15°
2026-05-07 17:50 38.67277 -9.18685 2257 ft 133 kts 10°
2026-05-07 17:50 38.68150 -9.18369 2081 ft 141 kts
2026-05-07 17:50 38.69143 -9.18025 1889 ft 155 kts 10°
2026-05-07 17:50 38.70199 -9.17633 1697 ft 160 kts 11°
2026-05-07 17:51 38.71271 -9.17216 1480 ft 162 kts 11°
2026-05-07 17:51 38.72349 -9.16716 1275 ft 167 kts 15°
2026-05-07 17:51 38.73427 -9.16136 1027 ft 168 kts 17°
2026-05-07 17:51 38.74453 -9.15547 861 ft 157 kts 18°
2026-05-07 17:52 38.75417 -9.15031 696 ft 140 kts 18°
2026-05-07 17:52 38.76226 -9.14594 521 ft 110 kts 17°
2026-05-07 17:52 38.76853 -9.14263 407 ft 95 kts 10°
2026-05-07 17:52 38.77575 -9.13912 601 ft 130 kts 18°
2026-05-07 17:53 38.78500 -9.13327 875 ft 159 kts 18°
2026-05-07 17:53 38.79529 -9.12671 1191 ft 176 kts 22°
2026-05-07 17:53 38.80611 -9.11979 1646 ft 176 kts 20°
2026-05-07 17:53 38.81724 -9.11298 1996 ft 186 kts 20°
2026-05-07 17:54 38.82945 -9.10580 2244 ft 195 kts 19°
2026-05-07 17:54 38.84157 -9.09868 2611 ft 187 kts 19°
2026-05-07 17:54 38.85309 -9.09157 2990 ft 181 kts 22°
2026-05-07 17:54 38.86435 -9.08483 3378 ft 177 kts 19°
2026-05-07 17:55 38.87580 -9.07928 3757 ft 177 kts 15°
2026-05-07 17:55 38.88803 -9.07389 4137 ft 196 kts 15°
2026-05-07 17:55 38.90151 -9.06814 4524 ft 212 kts 15°
2026-05-07 17:55 38.91614 -9.06204 4910 ft 228 kts 17°
2026-05-07 17:56 38.92984 -9.05157 5286 ft 235 kts 48°
2026-05-07 17:56 38.93780 -9.03341 5596 ft 237 kts 78°
2026-05-07 17:56 38.93887 -9.01260 5812 ft 234 kts 95°
2026-05-07 17:56 38.93822 -8.99158 5911 ft 237 kts 98°
2026-05-07 17:57 38.93718 -8.97055 5963 ft 241 kts 98°
2026-05-07 17:57 38.93639 -8.95601 5975 ft 243 kts 98°
2026-05-07 17:57 38.93470 -8.92734 5992 ft 243 kts 98°
2026-05-07 17:57 38.93338 -8.90576 5997 ft 243 kts 99°
2026-05-07 17:58 38.93209 -8.88413 5999 ft 243 kts 98°
2026-05-07 17:58 38.93077 -8.86248 6002 ft 243 kts 98°
2026-05-07 17:58 38.92943 -8.84085 6001 ft 244 kts 99°
2026-05-07 17:58 38.92810 -8.81915 6003 ft 244 kts 99°
2026-05-07 17:59 38.92676 -8.79745 6003 ft 244 kts 99°
2026-05-07 17:59 38.92545 -8.77576 6001 ft 243 kts 99°
2026-05-07 17:59 38.92412 -8.75409 6001 ft 243 kts 99°
2026-05-07 17:59 38.92278 -8.73274 6001 ft 243 kts 98°
2026-05-07 18:00 38.92142 -8.71113 5998 ft 243 kts 98°
2026-05-07 18:00 38.92010 -8.68951 6003 ft 243 kts 99°
2026-05-07 18:00 38.91879 -8.66787 5962 ft 244 kts 100°
2026-05-07 18:00 38.91394 -8.64762 5935 ft 236 kts 126°
2026-05-07 18:01 38.90205 -8.63406 5922 ft 229 kts 156°
2026-05-07 18:01 38.88672 -8.62950 5914 ft 227 kts 174°
2026-05-07 18:01 38.87100 -8.62783 5912 ft 227 kts 177°
2026-05-07 18:01 38.85547 -8.62687 5910 ft 226 kts 178°
2026-05-07 18:02 38.82497 -8.63229 5908 ft 225 kts 204°
2026-05-07 18:02 38.81106 -8.64153 5911 ft 225 kts 207°
2026-05-07 18:02 38.79747 -8.65141 5913 ft 225 kts 208°
2026-05-07 18:03 38.78395 -8.66154 5913 ft 225 kts 209°
2026-05-07 18:03 38.77048 -8.67173 5911 ft 226 kts 209°
2026-05-07 18:03 38.75697 -8.68198 5912 ft 226 kts 209°
2026-05-07 18:03 38.74343 -8.69226 5914 ft 225 kts 209°
2026-05-07 18:04 38.72999 -8.70251 5912 ft 224 kts 209°
2026-05-07 18:04 38.71664 -8.71274 5913 ft 223 kts 209°
2026-05-07 18:04 38.70352 -8.72273 5919 ft 222 kts 209°
2026-05-07 18:04 38.69018 -8.73270 5916 ft 222 kts 209°
2026-05-07 18:05 38.67684 -8.74261 5918 ft 222 kts 209°
2026-05-07 18:05 38.66346 -8.75253 5919 ft 222 kts 209°
2026-05-07 18:05 38.65009 -8.76243 5919 ft 222 kts 209°
2026-05-07 18:05 38.63673 -8.77233 5918 ft 222 kts 209°
2026-05-07 18:06 38.62338 -8.78224 5915 ft 222 kts 209°
2026-05-07 18:06 38.61009 -8.79214 5914 ft 221 kts 209°
2026-05-07 18:06 38.59681 -8.80204 5923 ft 221 kts 209°
2026-05-07 18:06 38.58354 -8.81194 5922 ft 221 kts 209°
2026-05-07 18:07 38.57026 -8.82180 5928 ft 221 kts 209°
2026-05-07 18:07 38.55717 -8.83155 5918 ft 220 kts 209°
2026-05-07 18:07 38.54392 -8.84132 5925 ft 220 kts 209°
2026-05-07 18:07 38.53074 -8.85109 5923 ft 219 kts 209°
2026-05-07 18:08 38.51754 -8.86081 5921 ft 219 kts 209°
2026-05-07 18:08 38.50430 -8.87046 5924 ft 219 kts 209°
2026-05-07 18:08 38.49106 -8.88010 5924 ft 219 kts 209°
2026-05-07 18:08 38.47783 -8.88970 5924 ft 219 kts 209°
2026-05-07 18:09 38.46460 -8.89930 5928 ft 219 kts 209°
2026-05-07 18:09 38.45135 -8.90886 5928 ft 219 kts 209°
2026-05-07 18:09 38.43814 -8.91848 5928 ft 219 kts 209°
2026-05-07 18:09 38.42493 -8.92805 5927 ft 218 kts 209°
2026-05-07 18:10 38.41188 -8.93751 5925 ft 220 kts 209°
2026-05-07 18:10 38.39872 -8.94749 5936 ft 221 kts 216°
2026-05-07 18:10 38.38985 -8.96341 5935 ft 227 kts 249°
2026-05-07 18:10 38.38787 -8.98348 5936 ft 231 kts 264°
2026-05-07 18:11 38.38783 -9.00399 5932 ft 232 kts 267°
2026-05-07 18:11 38.38807 -9.01765 5933 ft 233 kts 268°
2026-05-07 18:11 38.38880 -9.04527 5933 ft 233 kts 269°
2026-05-07 18:11 38.38956 -9.06593 5933 ft 233 kts 269°
2026-05-07 18:12 38.39030 -9.08642 5936 ft 230 kts 269°
2026-05-07 18:12 38.39104 -9.10666 5938 ft 226 kts 269°
2026-05-07 18:12 38.39389 -9.12588 5938 ft 226 kts 293°
2026-05-07 18:12 38.40430 -9.14081 5936 ft 230 kts 321°
2026-05-07 18:13 38.41791 -9.15156 5939 ft 230 kts 326°
2026-05-07 18:13 38.43189 -9.16143 5938 ft 229 kts 329°
2026-05-07 18:13 38.44596 -9.17100 5934 ft 229 kts 328°
2026-05-07 18:13 38.45968 -9.18041 5853 ft 217 kts 329°
2026-05-07 18:14 38.47277 -9.18937 5602 ft 210 kts 327°
2026-05-07 18:14 38.48552 -9.19789 5339 ft 203 kts 329°
2026-05-07 18:14 38.49809 -9.20614 4965 ft 203 kts 329°
2026-05-07 18:14 38.51141 -9.21235 4582 ft 204 kts 340°
2026-05-07 18:15 38.52495 -9.21692 4238 ft 203 kts 343°
2026-05-07 18:15 38.53913 -9.22134 3997 ft 217 kts 344°
2026-05-07 18:15 38.55383 -9.22577 4014 ft 217 kts 345°
2026-05-07 18:15 38.56898 -9.22547 4019 ft 220 kts
2026-05-07 18:16 38.58379 -9.22167 4020 ft 215 kts
2026-05-07 18:16 38.59777 -9.21754 3837 ft 200 kts
2026-05-07 18:16 38.61071 -9.21397 3570 ft 179 kts
2026-05-07 18:16 38.62166 -9.21083 3348 ft 145 kts
2026-05-07 18:17 38.63097 -9.20821 3177 ft 133 kts
2026-05-07 18:17 38.63986 -9.20579 3002 ft 129 kts
2026-05-07 18:17 38.64841 -9.20317 2832 ft 127 kts
2026-05-07 18:17 38.65682 -9.20006 2639 ft 125 kts
2026-05-07 18:18 38.66496 -9.19663 2486 ft 121 kts
2026-05-07 18:18 38.67292 -9.19330 2326 ft 121 kts 11°
2026-05-07 18:18 38.68095 -9.18981 2146 ft 123 kts 13°
2026-05-07 18:18 38.68888 -9.18555 1959 ft 123 kts 15°
2026-05-07 18:19 38.69662 -9.18120 1804 ft 121 kts 15°
2026-05-07 18:19 38.70432 -9.17698 1644 ft 120 kts 17°
2026-05-07 18:19 38.71199 -9.17287 1473 ft 119 kts 14°
2026-05-07 18:19 38.71979 -9.16886 1346 ft 126 kts 13°
2026-05-07 18:20 38.72825 -9.16454 1160 ft 132 kts 15°
2026-05-07 18:20 38.73657 -9.16001 976 ft 128 kts 18°
2026-05-07 18:20 38.74449 -9.15559 848 ft 119 kts 19°
2026-05-07 18:20 38.75198 -9.15159 712 ft 114 kts 17°
2026-05-07 18:21 38.75906 -9.14784 571 ft 110 kts 18°
2026-05-07 18:21 38.76597 -9.14407 395 ft 105 kts 13°
2026-05-07 18:21 38.77206 -9.14099 338 ft 80 kts 22°
2026-05-07 18:21 38.77637 -9.13859 339 ft 61 kts 27°
2026-05-07 18:22 38.78018 -9.13652 338 ft 60 kts 22°
2026-05-07 18:22 38.78257 -9.13491 337 ft 50 kts 38°
2026-05-07 18:22 38.78378 -9.13318 342 ft 3 kts 91°
2026-05-07 18:22 38.78377 -9.13308 342 ft 6 kts 99°
2026-05-07 18:23 38.78296 -9.13277 347 ft 15 kts 197°
2026-05-07 18:23 38.78231 -9.13309 342 ft 7 kts 202°
2026-05-07 18:23 38.78187 -9.13331 344 ft 16 kts 201°
2026-05-07 18:23 38.78082 -9.13385 350 ft 19 kts 207°
2026-05-07 18:24 38.77926 -9.13390 345 ft 23 kts 167°
2026-05-07 18:24 38.77793 -9.13355 348 ft 25 kts 168°
2026-05-07 18:24 38.77740 -9.13252 347 ft 19 kts 76°
2026-05-07 18:24 38.77824 -9.13223 343 ft 14 kts 344°
2026-05-07 18:25 38.77862 -9.13290 343 ft 10 kts 255°
2026-05-07 18:25 38.77859 -9.13309 343 ft 0 kts 259°